When you browse on this site, cookies collect data to enhance your experience and personalize the content and advertising you see.
Visit our Privacy Policy to learn more. By continuing to use the site, you agree to this use of cookies and data.
  • în România
  • Lista ţărilor
  • Pe 7 zile
  • Temperatura apei
  • Meteo pe hartă
  • Widget-uri
  • user-avatar
    Intrare

    Meteo pe oră la Ahtopol

    Astăzi, 19 Ianuarie, Duminică

    Timp Temperatura Precipitaţii Vânt Presiune Umiditate
    00:00 +3°C° 0 mm 3 m/s 767 mmHg 79%
    01:00 +3°C° 0 mm 3 m/s 767 mmHg 80%
    02:00 +3°C° 0 mm 3 m/s 767 mmHg 80%
    03:00 +3°C° 0 mm 3 m/s 766 mmHg 80%
    04:00 +3°C° 0 mm 3 m/s 766 mmHg 79%
    05:00 +3°C° 0 mm 3 m/s 766 mmHg 79%
    06:00 +3°C° 0 mm 3 m/s 766 mmHg 78%
    07:00 +3°C° 0 mm 3 m/s 766 mmHg 78%
    08:00 +3°C° 0 mm 3 m/s 766 mmHg 77%
    09:00 +3°C° 0 mm 3 m/s 767 mmHg 75%
    10:00 +3°C° 0 mm 4 m/s 767 mmHg 74%
    11:00 +4°C° 0 mm 4 m/s 767 mmHg 72%
    12:00 +4°C° 0.1 mm 4 m/s 767 mmHg 71%
    13:00 +4°C° 0.1 mm 4 m/s 767 mmHg 71%
    14:00 +3°C° 0.1 mm 5 m/s 767 mmHg 70%
    15:00 +3°C° 0.1 mm 5 m/s 767 mmHg 72%
    16:00 +3°C° 0.1 mm 5 m/s 768 mmHg 74%
    17:00 +2°C° 0.1 mm 5 m/s 768 mmHg 77%
    18:00 +2°C° 0 mm 6 m/s 768 mmHg 79%
    19:00 +1°C° 0 mm 6 m/s 769 mmHg 81%
    20:00 +1°C° 0 mm 6 m/s 769 mmHg 83%
    21:00 -1°C° 0 mm 6 m/s 770 mmHg 83%
    22:00 0°C° 0 mm 5 m/s 770 mmHg 82%
    23:00 0°C° 0 mm 5 m/s 771 mmHg 82%

    Mâine, 20 Ianuarie, Luni

    Timp Temperatura Precipitaţii Vânt Presiune Umiditate
    00:00 0°C° 0 mm 5 m/s 771 mmHg 82%
    01:00 0°C° 0 mm 5 m/s 772 mmHg 83%
    02:00 0°C° 0 mm 5 m/s 772 mmHg 83%
    03:00 -1°C° 0 mm 5 m/s 772 mmHg 83%
    04:00 -1°C° 0 mm 5 m/s 772 mmHg 84%
    05:00 -1°C° 0 mm 5 m/s 773 mmHg 84%
    06:00 -1°C° 0 mm 5 m/s 773 mmHg 84%
    07:00 -2°C° 0 mm 6 m/s 774 mmHg 84%
    08:00 -2°C° 0 mm 6 m/s 775 mmHg 84%
    09:00 -2°C° 0 mm 6 m/s 775 mmHg 77%
    10:00 -1°C° 0 mm 6 m/s 775 mmHg 71%
    11:00 0°C° 0 mm 7 m/s 776 mmHg 64%
    12:00 0°C° 0 mm 7 m/s 776 mmHg 62%
    13:00 +2°C° 0 mm 6 m/s 776 mmHg 61%
    14:00 +2°C° 0 mm 6 m/s 777 mmHg 59%
    15:00 +1°C° 0 mm 6 m/s 777 mmHg 62%
    16:00 +1°C° 0 mm 5 m/s 777 mmHg 64%
    17:00 0°C° 0 mm 4 m/s 777 mmHg 67%
    18:00 0°C° 0 mm 4 m/s 778 mmHg 70%
    19:00 -1°C° 0 mm 4 m/s 778 mmHg 73%
    20:00 -1°C° 0 mm 4 m/s 779 mmHg 77%
    21:00 -1°C° 0 mm 4 m/s 779 mmHg 77%
    22:00 -1°C° 0 mm 4 m/s 779 mmHg 77%
    23:00 -1°C° 0 mm 4 m/s 779 mmHg 77%

    Poimâine, 21 Ianuarie, Marţi

    Timp Temperatura Precipitaţii Vânt Presiune Umiditate
    00:00 -1°C° 0 mm 4 m/s 779 mmHg 77%
    01:00 -1°C° 0 mm 4 m/s 779 mmHg 77%
    02:00 -1°C° 0 mm 4 m/s 779 mmHg 77%
    03:00 -2°C° 0 mm 4 m/s 779 mmHg 78%
    04:00 -1°C° 0 mm 3 m/s 779 mmHg 79%
    05:00 -1°C° 0 mm 3 m/s 779 mmHg 80%
    06:00 -1°C° 0 mm 3 m/s 779 mmHg 80%
    07:00 -1°C° 0 mm 3 m/s 779 mmHg 80%
    08:00 -1°C° 0 mm 2 m/s 779 mmHg 80%
    09:00 +2°C° 0 mm 2 m/s 779 mmHg 72%
    10:00 +2°C° 0 mm 3 m/s 779 mmHg 63%
    11:00 +4°C° 0 mm 3 m/s 779 mmHg 55%
    12:00 +5°C° 0 mm 3 m/s 778 mmHg 53%
    13:00 +7°C° 0 mm 3 m/s 777 mmHg 50%
    14:00 +8°C° 0 mm 3 m/s 777 mmHg 47%
    15:00 +6°C° 0 mm 2 m/s 776 mmHg 52%
    16:00 +5°C° 0 mm 2 m/s 776 mmHg 57%
    17:00 +5°C° 0 mm 1 m/s 776 mmHg 61%
    18:00 +5°C° 0 mm 1 m/s 776 mmHg 63%
    19:00 +4°C° 0 mm 1 m/s 776 mmHg 65%
    20:00 +3°C° 0 mm 1 m/s 776 mmHg 67%
    21:00 +3°C° 0 mm 1 m/s 775 mmHg 68%
    22:00 +3°C° 0 mm 1 m/s 775 mmHg 68%
    23:00 +3°C° 0 mm 1 m/s 775 mmHg 68%

    22 Ianuarie, Miercuri

    Timp Temperatura Precipitaţii Vânt Presiune Umiditate
    00:00 +3°C° 0 mm 1 m/s 774 mmHg 68%
    01:00 +1°C° 0 mm 2 m/s 774 mmHg 67%
    02:00 +1°C° 0 mm 2 m/s 774 mmHg 67%
    03:00 +1°C° 0 mm 2 m/s 773 mmHg 66%
    04:00 +1°C° 0 mm 2 m/s 773 mmHg 66%
    05:00 +1°C° 0 mm 2 m/s 773 mmHg 65%
    06:00 +1°C° 0 mm 2 m/s 772 mmHg 65%
    07:00 +1°C° 0 mm 2 m/s 772 mmHg 64%
    08:00 +1°C° 0 mm 2 m/s 772 mmHg 63%
    09:00 +3°C° 0 mm 2 m/s 772 mmHg 57%
    10:00 +5°C° 0 mm 2 m/s 772 mmHg 50%
    11:00 +7°C° 0 mm 2 m/s 771 mmHg 44%
    12:00 +8°C° 0 mm 2 m/s 771 mmHg 42%
    13:00 +9°C° 0 mm 2 m/s 770 mmHg 41%
    14:00 +10°C° 0 mm 2 m/s 769 mmHg 39%
    15:00 +8°C° 0 mm 2 m/s 769 mmHg 44%
    16:00 +7°C° 0 mm 2 m/s 768 mmHg 49%
    17:00 +6°C° 0 mm 2 m/s 767 mmHg 55%
    18:00 +5°C° 0 mm 2 m/s 767 mmHg 57%
    19:00 +3°C° 0 mm 3 m/s 767 mmHg 59%
    20:00 +3°C° 0 mm 3 m/s 766 mmHg 61%
    21:00 +2°C° 0 mm 3 m/s 766 mmHg 60%
    22:00 +2°C° 0 mm 3 m/s 765 mmHg 59%
    23:00 +2°C° 0 mm 3 m/s 765 mmHg 59%

    23 Ianuarie, Joi

    Timp Temperatura Precipitaţii Vânt Presiune Umiditate
    00:00 +1°C° 0 mm 3 m/s 765 mmHg 58%
    01:00 +1°C° 0 mm 3 m/s 764 mmHg 58%
    02:00 +1°C° 0 mm 3 m/s 764 mmHg 58%
    03:00 +1°C° 0 mm 3 m/s 764 mmHg 58%
    04:00 +1°C° 0 mm 3 m/s 764 mmHg 57%
    05:00 +1°C° 0 mm 3 m/s 764 mmHg 57%
    06:00 +1°C° 0 mm 3 m/s 765 mmHg 59%
    07:00 0°C° 0 mm 3 m/s 766 mmHg 61%
    08:00 -1°C° 0 mm 4 m/s 766 mmHg 62%
    09:00 +1°C° 0 mm 4 m/s 767 mmHg 59%
    10:00 +3°C° 0 mm 4 m/s 768 mmHg 55%
    11:00 +5°C° 0 mm 4 m/s 768 mmHg 51%
    12:00 +5°C° 0 mm 5 m/s 768 mmHg 48%
    13:00 +5°C° 0 mm 6 m/s 769 mmHg 44%
    14:00 +5°C° 0 mm 8 m/s 769 mmHg 40%
    15:00 +4°C° 0 mm 6 m/s 769 mmHg 44%
    16:00 +3°C° 0 mm 5 m/s 770 mmHg 47%
    17:00 +3°C° 0 mm 4 m/s 770 mmHg 50%
    18:00 +3°C° 0 mm 4 m/s 771 mmHg 53%
    19:00 +1°C° 0 mm 4 m/s 771 mmHg 55%
    20:00 +1°C° 0 mm 3 m/s 772 mmHg 57%
    21:00 0°C° 0 mm 4 m/s 773 mmHg 59%
    22:00 -1°C° 0 mm 4 m/s 773 mmHg 60%
    23:00 -1°C° 0 mm 4 m/s 774 mmHg 62%

    24 Ianuarie, Vineri

    Timp Temperatura Precipitaţii Vânt Presiune Umiditate
    00:00 -2°C° 0 mm 4 m/s 774 mmHg 65%
    01:00 -2°C° 0 mm 4 m/s 774 mmHg 68%
    02:00 -3°C° 0 mm 4 m/s 774 mmHg 70%
    03:00 -2°C° 0 mm 3 m/s 775 mmHg 71%
    04:00 -2°C° 0 mm 3 m/s 775 mmHg 72%
    05:00 -2°C° 0 mm 3 m/s 775 mmHg 73%
    06:00 -2°C° 0 mm 2 m/s 775 mmHg 72%
    07:00 -2°C° 0 mm 2 m/s 775 mmHg 72%
    08:00 -2°C° 0 mm 2 m/s 775 mmHg 72%
    09:00 -1°C° 0 mm 2 m/s 775 mmHg 63%
    10:00 +2°C° 0 mm 2 m/s 775 mmHg 54%
    11:00 +4°C° 0 mm 1 m/s 776 mmHg 46%
    12:00 +5°C° 0 mm 1 m/s 775 mmHg 44%
    13:00 +6°C° 0 mm 1 m/s 775 mmHg 41%
    14:00 +6°C° 0 mm 1 m/s 774 mmHg 39%
    15:00 +5°C° 0 mm 1 m/s 774 mmHg 44%
    16:00 +5°C° 0 mm 1 m/s 774 mmHg 48%
    17:00 +4°C° 0 mm 1 m/s 774 mmHg 53%
    18:00 +3°C° 0 mm 1 m/s 774 mmHg 55%
    19:00 +2°C° 0 mm 1 m/s 774 mmHg 57%
    20:00 +2°C° 0 mm 1 m/s 774 mmHg 59%
    21:00 +2°C° 0 mm 1 m/s 774 mmHg 59%
    22:00 +1°C° 0 mm 1 m/s 774 mmHg 59%
    23:00 +1°C° 0 mm 1 m/s 774 mmHg 58%
    Arată mai mult